Погода в Жлобине

Погода в Жлобине : погода сейчас, прогноз погоды и архив. Всё, что Вы хотите узнать о погоде в Жлобине!

Хотите узнать прогноз погоды в Жлобине? Тогда Вам сюда: Погода в Жлобине

Поиск расширенной информации на нашем сайте:

Другие новости

Новости СМИ2

Главная страница сайта

Новости сайта

03.07.2017

Напоминаем, что на нашем специализированном сайте Метеоцентр.Азия вы можете получить высокодетализированные автоматические прогнозы погоды по пунктам России, СНГ и мира в авиационном формате (включающие направление и скорость ветра, видимость, явления погоды, количество и форму облачности, нижнюю и верхнюю границу облачности).


Погода в Жлобине - сегодня

Время (UTC), дата Ветер
(°,м/с) 
Видим.   Явления Облачность Т
(°С)
Тd
(°С)
f(%) Тe
(°С)
Pmin
(гПа)
dP
(гПа)
Po
(мм)
O2
(г/м3)
Тmin Tmax R s Состояние
почвы
09 20.09.18 240 (ЮЗ) 21000 м    ясно 
+24.8 +16.5 60 +36  1019.7  0.3  752  274           
12 20.09.18 300 (СЗ) 26000 м    ясно 
+26.4 +14.2 47 +34  1019  -0.6  752  273           
15 20.09.18 тихо ()   30000 м    ясно 
+25.2 +15.9 56 +35  1018.5  -0.4  752  274           
18 20.09.18 тихо ()   20000 м    ясно 
+20.2 +15.1 72 +29  1019.3  0.4  752  279    +27.5       
21 20.09.18 тихо ()   12000 м    ясно 
+16.4 +14.3 87 +24  1019.6  752  283           
00 21.09.18 тихо ()   7000 м  дымка  ясно 
+14.1 +13.2 94 +20  1020.1  0.4  752  286           
06 21.09.18 тихо ()   12000 м    ясно 
+17.4 +13.1 76 +23  1020.6  0.5  753  283  +12.9         
09 21.09.18 170 (Ю) 15000 м    3/0 верхняя 
[Ci fib]
+24.6 +13.7 51 +31  1020.1  -0.1  753  276           
12 21.09.18 240 (ЮЗ) 25000 м    5/3 1000 м верхняя 
[Cu hum|Ci fib]
+26.3 +11 38 +29  1019  -1  752  274           
15 21.09.18 160 (Ю) 25000 м    5/0 средняя, верхняя 
[Ac trans|Ci fib]
+24.1 +12.6 49 +29  1017.6  -1.4  751  276           
18 21.09.18 160 (Ю) 22000 м    1/0 верхняя 
[Ci fib]
+19.2 +13 67 +26  1017.3  -0.6  751  280    +27       
21 21.09.18 160 (Ю) 20000 м    ясно 
+17.1 +12.4 74 +24  1016.5  -1  750  282           
00 22.09.18 160 (Ю) 15000 м    ясно 
+15.2 +12.1 82 +21  1015.5  -1.1  749  284           
09 22.09.18 200 (Ю) 30000 м    5/3 1000 м средняя, верхняя 
[Sc|Ac cast|Ci sp]
+23.9 +10.8 44 +26  1010.8  -1.1  746  274           
12 22.09.18 300 (СЗ) 6{12}  23000 м    10/5 1000 м кучево-дожд., средняя, верхняя 
[Cb cap|Ac trans|Ci sp]
+21.7 +12.3 55 +26  1011.4  0.5  746  276           
15 22.09.18 300 (СЗ) 3{11}  30000 м    10/5 1000 м кучево-дожд., средняя 
[Cb cap|Ac As]
+15.4 +8.8 65 +16  1013.9  748  284           
18 22.09.18 310 (СЗ) 3{11}  9000 м  слаб. ливневой дождь  10/9 300 м кучево-дожд. 
[Cb cap]
+10 +8.5 90 +10  1015.6  1.4  749  290    +26.4     
21 22.09.18 тихо ()   10 км  слаб. ливневой дождь  10/9 300 м кучево-дожд. 
[Cb cap]
+9.5 +8.5 93 +10  1015.5  -0.2  749  290         
00 23.09.18 240 (ЮЗ) 15000 м  {ливн. осадки}  10/0 средняя 
[Ac As]
+9.8 +8.5 92 +10  1014.9  -0.5  748  290      0.0     
06 23.09.18 260 (З) 15000 м    10/5 300 м средняя 
[Frnb|Ac As]
+9.5 +8.2 92 +10  1014.8  0.4  748  290  +9.1       
09 23.09.18 250 (З) 30000 м    8/4 600 м средняя, верхняя 
[Sc diur, vesp|Ac trans|Cc]
+13 +8.4 74 +13  1014.7  0.1  748  286           
12 23.09.18 260 (З) 30000 м    6/4 600 м средняя 
[Sc diur, vesp|Ac trans]
+15 +6.8 58 +15  1014.4  -0.2  748  285           
15 23.09.18 220 (ЮЗ) 30000 м  {ливн. осадки}  5/3 600 м кучево-дожд., средняя 
[Cb cap|Ac trans]
+14.2 +8 66 +15  1013.2  -1.1  747  285      0.0     
18 23.09.18 тихо () {10}  17000 м  {ливн. осадки}  9/3 1000 м кучево-дожд., средняя 
[Cb cap|Ac lent]
+10.5 +9 90 +11  1012.8  -0.6  747  288    +15.8  0.3     
21 23.09.18 200 (Ю) 30000 м  {ливн. осадки}  10/3 1000 м кучево-дожд., средняя 
[Cb cap|Ac As]
+9.8 +9.4 97 +12  1011.6  -1.2  746  288      0.0     
Время (UTC), дата Ветер
(°,м/с) 
Видим.   Явления Облачность Т
(°С)
Тd
(°С)
f(%) Тe
(°С)
Pmin
(гПа)
dP
(гПа)
Po
(мм)
O2
(г/м3)
Тmin Tmax R s Состояние
почвы

Для получения пояснительной информации подведите курсор к названию столбца.

ПОГОДА в Жлобине - архив

Всё, что Вы хотите узнать о погоде в Жлобине - удобно и подробно!

Выберите нужную дату (начиная с 1 января 2015* года) и нажмите кнопку "Найти".
Будут отображены архивные сводки погоды по пункту Жлобин, начиная с указанной даты.


Отображать данные в формате CSV (для использования в таблицах Excel)


Внимание! Наш архив погоды предназначен исключительно для личного некоммерческого использования в познавательных целях. Если Вам необходимы официальные справки о состоянии погоды (для производственных, юридических, коммерческих и т.п. целей), обращайтесь в органы Росгидромета.

*Примечание: данная дата относится к архиву по метеостанциям СССР (Россия, СНГ, Балтия).
Архив по метеостанциям Зарубежной Европы и Азии (кроме Китая) хранится 10 дней, по другим регионам земного шара (Китай, Африка, Америка, Австралия, Океания) - 1 день.

Жлобин - район местоположения метеостанции


Название, широта, долгота, высота метеостанции:
Жлобин 52.9°ш. 30°д. 142 м над ур. моря [Беларусь]

Дополнительная информация

В oтличие oт бoльшинства пoгoдных сайтoв мы публикуем пoдрoбную метеoинфoрмацию в детальнoм прoфессиoнальнoм фoрмате.

Характеристики температуры и влажнoсти вoздуха измеряются на высoте 2 м в тени вдали oт зданий и деревьев.
Скoрoсть ветра измеряется на высoте 10 м (на урoвне рoста челoвека скoрoсть ветра ниже в 1.5-2 раза). Если метеoстанция нахoдится в гoрoде или в лесу, тo скoрoсть ветра занижена на 2-4 м/с пo сравнению с oткрытым местoм. Скoрoсть ветра над акватoриями крупных рек и oзёр, а также на вершинах хoлмoв на 2-5 м/с выше, чем в oбычных услoвиях.
Атмoсфернoе давление в разных тoчках местнoсти мoжет значительнo oтличаться oт давления на метеoстанции, в зависимoсти oт услoвий рельефа (при пoдъёме на 10 м давление пoнижается примернo на 1 мм рт.ст.).